Hourly Weather Goladkowo

Today, 18 May, Tuesday

Time Temperature Precipitation Wind Pressure Humidity
00:00 +12°C° 0 mm 2 mps 743 mmHg 85%
01:00 +12°C° 0 mm 2 mps 743 mmHg 86%
02:00 +12°C° 0 mm 1 mps 743 mmHg 87%
03:00 +11°C° 0 mm 1 mps 743 mmHg 87%
04:00 +11°C° 0 mm 1 mps 743 mmHg 87%
05:00 +12°C° 0 mm 2 mps 743 mmHg 85%
06:00 +12°C° 0 mm 3 mps 743 mmHg 83%
07:00 +13°C° 0 mm 3 mps 744 mmHg 80%
08:00 +14°C° 0 mm 4 mps 744 mmHg 79%
09:00 +15°C° 0 mm 4 mps 744 mmHg 77%
10:00 +15°C° 0 mm 4 mps 744 mmHg 75%
11:00 +15°C° 0.2 mm 5 mps 744 mmHg 75%
12:00 +15°C° 0.2 mm 6 mps 744 mmHg 75%
13:00 +15°C° 0.2 mm 6 mps 744 mmHg 75%
14:00 +15°C° 0.1 mm 6 mps 744 mmHg 75%
15:00 +15°C° 0.1 mm 6 mps 744 mmHg 76%
16:00 +14°C° 0.1 mm 6 mps 744 mmHg 76%
17:00 +13°C° 0 mm 6 mps 745 mmHg 79%
18:00 +13°C° 0 mm 5 mps 745 mmHg 81%
19:00 +12°C° 0 mm 5 mps 745 mmHg 83%
20:00 +10°C° 0 mm 5 mps 745 mmHg 85%
21:00 +10°C° 0 mm 5 mps 746 mmHg 87%
22:00 +10°C° 0 mm 4 mps 746 mmHg 89%
23:00 +8°C° 0 mm 4 mps 746 mmHg 89%

Tomorrow, 19 May, Wednesday

Time Temperature Precipitation Wind Pressure Humidity
00:00 +8°C° 0 mm 4 mps 746 mmHg 89%
01:00 +7°C° 0 mm 4 mps 746 mmHg 89%
02:00 +7°C° 0 mm 4 mps 746 mmHg 90%
03:00 +7°C° 0 mm 4 mps 747 mmHg 91%
04:00 +6°C° 0 mm 4 mps 747 mmHg 92%
05:00 +8°C° 0 mm 4 mps 747 mmHg 87%
06:00 +10°C° 0 mm 4 mps 747 mmHg 82%
07:00 +10°C° 0 mm 5 mps 748 mmHg 77%
08:00 +13°C° 0 mm 5 mps 748 mmHg 73%
09:00 +14°C° 0 mm 5 mps 748 mmHg 69%
10:00 +15°C° 0 mm 5 mps 748 mmHg 65%
11:00 +15°C° 0.2 mm 5 mps 748 mmHg 67%
12:00 +14°C° 0.2 mm 4 mps 748 mmHg 69%
13:00 +14°C° 0.2 mm 4 mps 748 mmHg 71%
14:00 +14°C° 0.2 mm 4 mps 748 mmHg 71%
15:00 +14°C° 0.2 mm 4 mps 749 mmHg 70%
16:00 +15°C° 0.2 mm 4 mps 749 mmHg 70%
17:00 +13°C° 0.5 mm 3 mps 749 mmHg 75%
18:00 +12°C° 0.5 mm 3 mps 749 mmHg 81%
19:00 +11°C° 0.5 mm 3 mps 749 mmHg 86%
20:00 +10°C° 0 mm 3 mps 750 mmHg 87%
21:00 +9°C° 0 mm 3 mps 750 mmHg 87%
22:00 +7°C° 0 mm 3 mps 750 mmHg 88%
23:00 +7°C° 0 mm 3 mps 750 mmHg 88%

Day after tomorrow, 20 May, Thursday

Time Temperature Precipitation Wind Pressure Humidity
00:00 +5°C° 0 mm 3 mps 750 mmHg 88%
01:00 +4°C° 0 mm 3 mps 750 mmHg 88%
02:00 +4°C° 0 mm 3 mps 751 mmHg 89%
03:00 +5°C° 0 mm 2 mps 751 mmHg 90%
04:00 +5°C° 0 mm 2 mps 751 mmHg 91%
05:00 +7°C° 0 mm 3 mps 751 mmHg 86%
06:00 +8°C° 0 mm 3 mps 752 mmHg 82%
07:00 +10°C° 0 mm 4 mps 752 mmHg 77%
08:00 +11°C° 0 mm 4 mps 752 mmHg 71%
09:00 +13°C° 0 mm 5 mps 752 mmHg 65%
10:00 +14°C° 0 mm 5 mps 752 mmHg 59%
11:00 +15°C° 0 mm 5 mps 752 mmHg 57%
12:00 +16°C° 0 mm 5 mps 751 mmHg 54%
13:00 +16°C° 0 mm 5 mps 751 mmHg 51%
14:00 +16°C° 0 mm 5 mps 751 mmHg 55%
15:00 +15°C° 0 mm 5 mps 751 mmHg 58%
16:00 +15°C° 0 mm 5 mps 751 mmHg 61%
17:00 +14°C° 0 mm 5 mps 752 mmHg 67%
18:00 +13°C° 0 mm 4 mps 752 mmHg 72%
19:00 +12°C° 0 mm 4 mps 752 mmHg 77%
20:00 +10°C° 0 mm 4 mps 752 mmHg 80%
21:00 +8°C° 0 mm 4 mps 753 mmHg 83%
22:00 +8°C° 0 mm 3 mps 753 mmHg 86%
23:00 +7°C° 0 mm 3 mps 753 mmHg 88%

21 May, Friday

Time Temperature Precipitation Wind Pressure Humidity
00:00 +5°C° 0 mm 3 mps 753 mmHg 89%
01:00 +4°C° 0 mm 3 mps 754 mmHg 91%
02:00 +4°C° 0 mm 3 mps 754 mmHg 91%
03:00 +3°C° 0 mm 3 mps 754 mmHg 90%
04:00 +3°C° 0 mm 4 mps 754 mmHg 89%
05:00 +5°C° 0 mm 4 mps 754 mmHg 83%
06:00 +6°C° 0 mm 4 mps 754 mmHg 76%
07:00 +8°C° 0 mm 5 mps 754 mmHg 69%
08:00 +9°C° 0 mm 5 mps 754 mmHg 65%
09:00 +10°C° 0 mm 5 mps 754 mmHg 61%
10:00 +11°C° 0 mm 6 mps 754 mmHg 57%
11:00 +12°C° 0 mm 5 mps 753 mmHg 55%
12:00 +13°C° 0 mm 5 mps 753 mmHg 53%
13:00 +13°C° 0 mm 5 mps 753 mmHg 51%
14:00 +14°C° 0 mm 5 mps 753 mmHg 52%
15:00 +14°C° 0 mm 4 mps 752 mmHg 53%
16:00 +14°C° 0 mm 4 mps 752 mmHg 55%
17:00 +13°C° 0 mm 4 mps 752 mmHg 60%
18:00 +11°C° 0 mm 3 mps 752 mmHg 66%
19:00 +10°C° 0 mm 2 mps 752 mmHg 72%
20:00 +9°C° 0 mm 2 mps 752 mmHg 75%
21:00 +9°C° 0 mm 2 mps 752 mmHg 78%
22:00 +8°C° 0 mm 3 mps 752 mmHg 81%
23:00 +8°C° 0 mm 2 mps 751 mmHg 82%

22 May, Saturday

Time Temperature Precipitation Wind Pressure Humidity
00:00 +8°C° 0 mm 2 mps 751 mmHg 82%
01:00 +8°C° 0 mm 2 mps 751 mmHg 83%
02:00 +8°C° 0 mm 3 mps 750 mmHg 82%
03:00 +9°C° 0 mm 3 mps 750 mmHg 82%
04:00 +9°C° 0 mm 3 mps 750 mmHg 81%
05:00 +10°C° 0 mm 3 mps 749 mmHg 77%
06:00 +12°C° 0 mm 4 mps 749 mmHg 74%
07:00 +13°C° 0 mm 4 mps 749 mmHg 71%
08:00 +14°C° 0 mm 5 mps 749 mmHg 65%
09:00 +16°C° 0 mm 6 mps 749 mmHg 59%
10:00 +18°C° 0 mm 7 mps 748 mmHg 53%
11:00 +18°C° 0 mm 7 mps 748 mmHg 53%
12:00 +18°C° 0 mm 7 mps 748 mmHg 53%
13:00 +20°C° 0 mm 7 mps 748 mmHg 52%
14:00 +19°C° 0.3 mm 6 mps 748 mmHg 59%
15:00 +17°C° 0.3 mm 5 mps 748 mmHg 66%
16:00 +18°C° 0.3 mm 4 mps 748 mmHg 73%
17:00 +15°C° 1.5 mm 4 mps 748 mmHg 80%
18:00 +14°C° 1.5 mm 4 mps 748 mmHg 87%
19:00 +12°C° 1.5 mm 4 mps 749 mmHg 95%
20:00 +12°C° 0.7 mm 3 mps 749 mmHg 95%
21:00 +11°C° 0.7 mm 3 mps 749 mmHg 96%
22:00 +12°C° 0.7 mm 2 mps 749 mmHg 97%
23:00 +12°C° 0.5 mm 2 mps 749 mmHg 96%

23 May, Sunday

Time Temperature Precipitation Wind Pressure Humidity
00:00 +12°C° 0.5 mm 1 mps 749 mmHg 95%
01:00 +11°C° 0.5 mm 1 mps 749 mmHg 94%
02:00 +11°C° 0.2 mm 1 mps 749 mmHg 94%
03:00 +10°C° 0.2 mm 2 mps 749 mmHg 93%
04:00 +9°C° 0.2 mm 2 mps 749 mmHg 93%
05:00 +10°C° 0 mm 2 mps 749 mmHg 88%
06:00 +12°C° 0 mm 2 mps 749 mmHg 82%
07:00 +13°C° 0 mm 2 mps 749 mmHg 77%
08:00 +13°C° 0 mm 3 mps 749 mmHg 70%
09:00 +16°C° 0 mm 3 mps 749 mmHg 62%
10:00 +17°C° 0 mm 3 mps 750 mmHg 55%
11:00 +17°C° 0.1 mm 4 mps 750 mmHg 54%
12:00 +18°C° 0.1 mm 4 mps 749 mmHg 52%
13:00 +19°C° 0.1 mm 4 mps 749 mmHg 51%
14:00 +18°C° 0.2 mm 4 mps 750 mmHg 55%
15:00 +18°C° 0.2 mm 4 mps 750 mmHg 59%
16:00 +17°C° 0.2 mm 4 mps 750 mmHg 64%
17:00 +16°C° 0.2 mm 3 mps 750 mmHg 69%
18:00 +14°C° 0.2 mm 3 mps 750 mmHg 74%
19:00 +14°C° 0.2 mm 2 mps 751 mmHg 79%
20:00 +13°C° 0 mm 2 mps 751 mmHg 82%
21:00 +12°C° 0 mm 2 mps 751 mmHg 84%
22:00 +10°C° 0 mm 2 mps 752 mmHg 87%
23:00 +9°C° 0 mm 2 mps 752 mmHg 88%
Show more